Time,TemperatureF,DewpointF,PressureIn,WindDirection,WindDirectionDegrees,WindSpeedMPH,WindSpeedGustMPH,Humidity,HourlyPrecipIn,Conditions,Clouds,dailyrainin,SoftwareType,DateUTC
2013-02-07 00:01:00,47.0,26.7,30.32,North,5,0.0,0.0,45,0.00,,,0.01,Wunderground v.1.13,2013-02-07 05:01:00,
2013-02-07 00:02:00,47.0,26.7,30.32,North,5,0.0,0.0,45,0.00,,,0.01,Wunderground v.1.13,2013-02-07 05:02:00,
2013-02-07 00:04:00,47.0,26.7,30.32,North,5,0.0,0.0,45,0.00,,,0.01,Wunderground v.1.13,2013-02-07 05:04:00,
2013-02-07 00:09:00,47.0,27.3,30.32,North,5,0.0,0.0,46,0.00,,,0.01,Wunderground v.1.13,2013-02-07 05:09:00,
2013-02-07 00:12:00,46.9,27.7,30.33,North,5,0.0,0.0,47,0.00,,,0.01,Wunderground v.1.13,2013-02-07 05:12:00,
2013-02-07 00:17:00,46.7,27.0,30.32,North,5,0.0,0.0,46,0.00,,,0.01,Wunderground v.1.13,2013-02-07 05:17:00,
2013-02-07 00:22:00,46.6,26.9,30.32,North,5,0.0,0.0,46,0.00,,,0.01,Wunderground v.1.13,2013-02-07 05:22:00,
2013-02-07 00:27:00,46.5,26.8,30.32,North,5,0.0,0.0,46,0.00,,,0.01,Wunderground v.1.13,2013-02-07 05:27:00,
2013-02-07 00:32:00,46.6,26.9,30.32,North,5,0.0,0.0,46,0.00,,,0.01,Wunderground v.1.13,2013-02-07 05:32:00,
2013-02-07 00:37:00,46.8,27.1,30.31,North,5,0.0,0.0,46,0.00,,,0.01,Wunderground v.1.13,2013-02-07 05:37:00,
2013-02-07 00:42:00,46.8,26.6,30.31,North,5,0.0,0.0,45,0.00,,,0.01,Wunderground v.1.13,2013-02-07 05:42:00,
2013-02-07 00:47:00,47.0,26.7,30.31,North,5,0.0,0.0,45,0.00,,,0.01,Wunderground v.1.13,2013-02-07 05:47:00,
2013-02-07 00:52:00,47.2,26.4,30.31,North,5,0.0,0.0,44,0.00,,,0.00,Wunderground v.1.13,2013-02-07 05:52:00,
2013-02-07 00:58:00,47.4,26.6,30.32,North,5,0.0,0.0,44,0.00,,,0.00,Wunderground v.1.13,2013-02-07 05:58:00,
2013-02-07 01:03:00,47.3,28.1,30.32,North,5,0.0,0.0,47,0.00,,,0.00,Wunderground v.1.13,2013-02-07 06:03:00,
2013-02-07 01:09:00,46.9,26.6,30.32,North,5,0.0,0.0,45,0.00,,,0.00,Wunderground v.1.13,2013-02-07 06:09:00,
2013-02-07 01:14:00,46.7,26.5,30.32,North,5,0.0,0.0,45,0.00,,,0.00,Wunderground v.1.13,2013-02-07 06:14:00,
2013-02-07 01:19:00,46.7,26.5,30.32,North,5,0.0,0.0,45,0.00,,,0.00,Wunderground v.1.13,2013-02-07 06:19:00,
2013-02-07 01:24:00,46.8,26.6,30.31,North,5,0.0,0.0,45,0.00,,,0.00,Wunderground v.1.13,2013-02-07 06:24:00,
2013-02-07 01:30:00,47.2,26.9,30.31,North,5,0.0,0.0,45,0.00,,,0.00,Wunderground v.1.13,2013-02-07 06:30:00,
2013-02-07 01:35:00,47.3,27.0,30.31,North,5,0.0,0.0,45,0.00,,,0.00,Wunderground v.1.13,2013-02-07 06:35:00,
2013-02-07 01:40:00,47.2,26.9,30.31,North,5,0.0,0.0,45,0.00,,,0.00,Wunderground v.1.13,2013-02-07 06:40:00,
2013-02-07 01:45:00,47.1,26.3,30.30,North,5,0.0,0.0,44,0.00,,,0.00,Wunderground v.1.13,2013-02-07 06:45:00,
2013-02-07 01:51:00,47.2,26.4,30.30,North,5,0.0,0.0,44,0.00,,,0.00,Wunderground v.1.13,2013-02-07 06:51:00,
2013-02-07 01:57:00,47.4,26.6,30.30,North,5,0.0,0.0,44,0.00,,,0.00,Wunderground v.1.13,2013-02-07 06:57:00,
2013-02-07 02:02:00,47.5,26.1,30.30,North,5,0.0,0.0,43,0.00,,,0.00,Wunderground v.1.13,2013-02-07 07:02:00,
2013-02-07 02:07:00,47.6,26.7,30.31,North,5,0.0,0.0,44,0.00,,,0.00,Wunderground v.1.13,2013-02-07 07:07:00,
2013-02-07 02:12:00,47.6,27.3,30.31,North,5,0.0,0.0,45,0.00,,,0.00,Wunderground v.1.13,2013-02-07 07:12:00,
2013-02-07 02:17:00,47.4,27.6,30.31,North,5,0.0,0.0,46,0.00,,,0.00,Wunderground v.1.13,2013-02-07 07:17:00,
2013-02-07 02:22:00,47.1,27.9,30.31,North,5,0.0,0.0,47,0.00,,,0.00,Wunderground v.1.13,2013-02-07 07:22:00,
2013-02-07 02:27:00,46.8,27.6,30.32,North,5,0.0,0.0,47,0.00,,,0.00,Wunderground v.1.13,2013-02-07 07:27:00,
2013-02-07 02:32:00,46.6,27.9,30.32,North,5,0.0,0.0,48,0.00,,,0.00,Wunderground v.1.13,2013-02-07 07:32:00,
2013-02-07 02:37:00,46.5,28.3,30.32,North,5,0.0,0.0,49,0.00,,,0.00,Wunderground v.1.13,2013-02-07 07:37:00,
2013-02-07 02:42:00,46.5,28.3,30.32,North,5,0.0,0.0,49,0.00,,,0.00,Wunderground v.1.13,2013-02-07 07:42:00,
2013-02-07 02:47:00,46.7,28.0,30.32,North,5,0.0,0.0,48,0.00,,,0.00,Wunderground v.1.13,2013-02-07 07:47:00,
2013-02-07 02:52:00,46.8,28.6,30.32,North,5,0.0,1.0,49,0.00,,,0.00,Wunderground v.1.13,2013-02-07 07:52:00,
2013-02-07 02:57:00,46.9,28.2,30.32,North,5,0.0,1.0,48,0.00,,,0.00,Wunderground v.1.13,2013-02-07 07:57:00,
2013-02-07 03:02:00,47.2,28.5,30.32,North,5,0.0,0.0,48,0.00,,,0.00,Wunderground v.1.13,2013-02-07 08:02:00,
2013-02-07 03:07:00,47.4,28.2,30.32,North,5,0.0,1.0,47,0.00,,,0.00,Wunderground v.1.13,2013-02-07 08:07:00,
2013-02-07 03:12:00,47.5,28.3,30.32,WSW,248,2.0,3.0,47,0.00,,,0.00,Wunderground v.1.13,2013-02-07 08:12:00,
2013-02-07 03:17:00,47.7,28.4,30.32,WSW,246,0.0,1.0,47,0.00,,,0.00,Wunderground v.1.13,2013-02-07 08:17:00,
2013-02-07 03:22:00,47.8,28.5,30.33,SW,227,0.0,3.0,47,0.00,,,0.00,Wunderground v.1.13,2013-02-07 08:22:00,
2013-02-07 03:27:00,47.7,28.4,30.33,SW,227,0.0,0.0,47,0.00,,,0.00,Wunderground v.1.13,2013-02-07 08:27:00,
2013-02-07 03:32:00,47.7,28.9,30.33,SW,227,0.0,0.0,48,0.00,,,0.00,Wunderground v.1.13,2013-02-07 08:32:00,
2013-02-07 03:38:00,47.7,28.4,30.33,SSW,208,0.0,2.0,47,0.00,,,0.00,Wunderground v.1.13,2013-02-07 08:38:00,
2013-02-07 03:43:00,47.9,28.6,30.33,SSE,166,0.0,2.0,47,0.00,,,0.00,Wunderground v.1.13,2013-02-07 08:43:00,
2013-02-07 03:48:00,48.0,28.7,30.33,SSE,165,1.0,1.0,47,0.00,,,0.00,Wunderground v.1.13,2013-02-07 08:48:00,
2013-02-07 03:53:00,48.1,28.8,30.33,SSE,165,0.0,0.0,47,0.00,,,0.00,Wunderground v.1.13,2013-02-07 08:53:00,
2013-02-07 03:58:00,48.3,29.5,30.33,SE,134,1.0,2.0,48,0.00,,,0.00,Wunderground v.1.13,2013-02-07 08:58:00,
2013-02-07 04:03:00,48.3,29.5,30.33,SSE,148,0.0,1.0,48,0.00,,,0.00,Wunderground v.1.13,2013-02-07 09:03:00,
2013-02-07 04:08:00,48.3,29.0,30.33,SSE,148,0.0,0.0,47,0.00,,,0.00,Wunderground v.1.13,2013-02-07 09:08:00,
2013-02-07 04:13:00,48.3,29.5,30.33,SSW,198,0.0,3.0,48,0.00,,,0.00,Wunderground v.1.13,2013-02-07 09:13:00,
2013-02-07 04:18:00,48.2,29.9,30.33,SSW,202,0.0,3.0,49,0.00,,,0.00,Wunderground v.1.13,2013-02-07 09:18:00,
2013-02-07 04:23:00,48.0,29.7,30.33,SSW,208,2.0,2.0,49,0.00,,,0.00,Wunderground v.1.13,2013-02-07 09:23:00,
2013-02-07 04:28:00,47.9,29.6,30.33,SE,145,0.0,2.0,49,0.00,,,0.00,Wunderground v.1.13,2013-02-07 09:28:00,
2013-02-07 04:33:00,47.9,30.1,30.33,SSE,150,0.0,1.0,50,0.00,,,0.00,Wunderground v.1.13,2013-02-07 09:33:00,
2013-02-07 04:38:00,47.9,30.1,30.33,SSE,154,0.0,1.0,50,0.00,,,0.00,Wunderground v.1.13,2013-02-07 09:38:00,
2013-02-07 04:43:00,47.9,30.1,30.33,SSE,148,0.0,7.0,50,0.00,,,0.00,Wunderground v.1.13,2013-02-07 09:43:00,
2013-02-07 04:48:00,47.8,30.0,30.32,ESE,109,0.0,1.0,50,0.00,,,0.00,Wunderground v.1.13,2013-02-07 09:48:00,
2013-02-07 04:53:00,47.8,30.0,30.32,South,179,1.0,3.0,50,0.00,,,0.00,Wunderground v.1.13,2013-02-07 09:53:00,
2013-02-07 04:58:00,47.9,30.6,30.32,South,180,1.0,3.0,51,0.00,,,0.00,Wunderground v.1.13,2013-02-07 09:58:00,
2013-02-07 05:03:00,47.8,30.5,30.32,SSE,155,0.0,6.0,51,0.00,,,0.00,Wunderground v.1.13,2013-02-07 10:03:00,
2013-02-07 05:08:00,47.7,30.4,30.32,South,184,0.0,3.0,51,0.00,,,0.00,Wunderground v.1.13,2013-02-07 10:08:00,
2013-02-07 05:13:00,47.6,30.8,30.31,SSW,205,0.0,3.0,52,0.00,,,0.00,Wunderground v.1.13,2013-02-07 10:13:00,
2013-02-07 05:18:00,47.6,30.8,30.31,SSW,200,0.0,2.0,52,0.00,,,0.00,Wunderground v.1.13,2013-02-07 10:18:00,
2013-02-07 05:23:00,47.6,30.8,30.31,SSW,199,0.0,1.0,52,0.00,,,0.00,Wunderground v.1.13,2013-02-07 10:23:00,
2013-02-07 05:28:00,47.6,30.8,30.31,SSW,199,0.0,2.0,52,0.00,,,0.00,Wunderground v.1.13,2013-02-07 10:28:00,
2013-02-07 05:33:00,47.7,30.9,30.31,SSW,209,0.0,5.0,52,0.00,,,0.00,Wunderground v.1.13,2013-02-07 10:33:00,
2013-02-07 05:38:00,47.7,30.9,30.30,South,177,1.0,2.0,52,0.00,,,0.00,Wunderground v.1.13,2013-02-07 10:38:00,
2013-02-07 05:43:00,47.8,31.0,30.30,South,179,1.0,2.0,52,0.00,,,0.00,Wunderground v.1.13,2013-02-07 10:43:00,
2013-02-07 05:48:00,47.8,31.5,30.31,South,176,0.0,0.0,53,0.00,,,0.00,Wunderground v.1.13,2013-02-07 10:48:00,
2013-02-07 05:53:00,47.7,31.4,30.31,SW,220,0.0,1.0,53,0.00,,,0.00,Wunderground v.1.13,2013-02-07 10:53:00,
2013-02-07 05:58:00,47.7,31.4,30.31,SW,217,0.0,1.0,53,0.00,,,0.00,Wunderground v.1.13,2013-02-07 10:58:00,
2013-02-07 06:03:00,47.7,31.9,30.31,SW,215,0.0,1.0,54,0.00,,,0.00,Wunderground v.1.13,2013-02-07 11:03:00,
2013-02-07 06:08:00,47.8,31.5,30.31,SW,215,1.0,1.0,53,0.00,,,0.00,Wunderground v.1.13,2013-02-07 11:08:00,
2013-02-07 06:13:00,47.7,31.9,30.31,SSW,195,0.0,2.0,54,0.00,,,0.00,Wunderground v.1.13,2013-02-07 11:13:00,
2013-02-07 06:18:00,47.8,31.5,30.31,SSW,199,0.0,4.0,53,0.00,,,0.00,Wunderground v.1.13,2013-02-07 11:18:00,
2013-02-07 06:23:00,48.0,31.7,30.31,SSW,196,0.0,5.0,53,0.00,,,0.00,Wunderground v.1.13,2013-02-07 11:23:00,
2013-02-07 06:28:00,48.1,31.3,30.31,SSW,194,0.0,4.0,52,0.00,,,0.00,Wunderground v.1.13,2013-02-07 11:28:00,
2013-02-07 06:33:00,48.3,31.5,30.31,South,178,0.0,5.0,52,0.00,,,0.00,Wunderground v.1.13,2013-02-07 11:33:00,
2013-02-07 06:38:00,48.5,31.7,30.31,South,188,0.0,2.0,52,0.00,,,0.00,Wunderground v.1.13,2013-02-07 11:38:00,
2013-02-07 06:44:00,48.5,31.7,30.31,South,173,0.0,2.0,52,0.00,,,0.00,Wunderground v.1.13,2013-02-07 11:44:00,
2013-02-07 06:49:00,48.6,32.2,30.31,East,96,0.0,3.0,53,0.00,,,0.00,Wunderground v.1.13,2013-02-07 11:49:00,
2013-02-07 06:54:00,48.6,31.8,30.31,South,180,4.0,4.0,52,0.00,,,0.00,Wunderground v.1.13,2013-02-07 11:54:00,
2013-02-07 06:59:00,48.6,31.8,30.31,SE,143,0.0,6.0,52,0.00,,,0.00,Wunderground v.1.13,2013-02-07 11:59:00,
2013-02-07 07:04:00,48.6,32.2,30.31,SSW,200,0.0,3.0,53,0.00,,,0.00,Wunderground v.1.13,2013-02-07 12:04:00,
2013-02-07 07:09:00,48.5,32.1,30.31,South,169,0.0,6.0,53,0.00,,,0.00,Wunderground v.1.13,2013-02-07 12:09:00,
2013-02-07 07:14:00,48.5,32.6,30.31,South,169,0.0,1.0,54,0.00,,,0.00,Wunderground v.1.13,2013-02-07 12:14:00,
2013-02-07 07:19:00,48.5,32.6,30.31,South,169,0.0,1.0,54,0.00,,,0.00,Wunderground v.1.13,2013-02-07 12:19:00,
2013-02-07 07:24:00,48.5,32.6,30.31,South,169,0.0,2.0,54,0.00,,,0.00,Wunderground v.1.13,2013-02-07 12:24:00,
2013-02-07 07:29:00,48.6,33.1,30.31,South,182,1.0,4.0,55,0.00,,,0.00,Wunderground v.1.13,2013-02-07 12:29:00,
2013-02-07 07:34:00,48.7,32.8,30.31,South,182,0.0,1.0,54,0.00,,,0.00,Wunderground v.1.13,2013-02-07 12:34:00,
2013-02-07 07:39:00,48.7,33.2,30.31,South,182,0.0,0.0,55,0.00,,,0.00,Wunderground v.1.13,2013-02-07 12:39:00,
2013-02-07 07:44:00,48.7,32.8,30.30,South,182,0.0,1.0,54,0.00,,,0.00,Wunderground v.1.13,2013-02-07 12:44:00,
2013-02-07 07:49:00,48.7,33.2,30.31,West,275,0.0,2.0,55,0.00,,,0.00,Wunderground v.1.13,2013-02-07 12:49:00,
2013-02-07 07:54:00,48.9,33.4,30.30,South,190,0.0,4.0,55,0.00,,,0.00,Wunderground v.1.13,2013-02-07 12:54:00,
2013-02-07 07:59:00,49.0,33.5,30.30,South,191,0.0,1.0,55,0.00,,,0.00,Wunderground v.1.13,2013-02-07 12:59:00,
2013-02-07 08:04:00,49.0,33.5,30.30,SE,143,0.0,3.0,55,0.00,,,0.00,Wunderground v.1.13,2013-02-07 13:04:00,
2013-02-07 08:09:00,49.0,33.5,30.30,SE,143,0.0,0.0,55,0.00,,,0.00,Wunderground v.1.13,2013-02-07 13:09:00,
2013-02-07 08:14:00,49.1,33.6,30.30,SE,143,0.0,0.0,55,0.00,,,0.00,Wunderground v.1.13,2013-02-07 13:14:00,
2013-02-07 08:19:00,49.0,34.4,30.30,SE,143,0.0,1.0,57,0.00,,,0.00,Wunderground v.1.13,2013-02-07 13:19:00,
2013-02-07 08:24:00,49.0,34.4,30.30,SSW,193,0.0,2.0,57,0.00,,,0.00,Wunderground v.1.13,2013-02-07 13:24:00,
2013-02-07 08:29:00,49.2,34.6,30.30,SSW,192,0.0,2.0,57,0.00,,,0.00,Wunderground v.1.13,2013-02-07 13:29:00,
2013-02-07 08:34:00,49.2,35.0,30.30,SSW,192,0.0,0.0,58,0.00,,,0.00,Wunderground v.1.13,2013-02-07 13:34:00,
2013-02-07 08:39:00,49.3,34.3,30.30,SE,126,0.0,2.0,56,0.00,,,0.00,Wunderground v.1.13,2013-02-07 13:39:00,
2013-02-07 08:44:00,49.3,35.1,30.30,South,173,0.0,4.0,58,0.00,,,0.00,Wunderground v.1.13,2013-02-07 13:44:00,
2013-02-07 08:49:00,49.4,34.8,30.31,South,173,0.0,0.0,57,0.00,,,0.00,Wunderground v.1.13,2013-02-07 13:49:00,
2013-02-07 08:54:00,49.3,34.7,30.31,South,173,0.0,1.0,57,0.00,,,0.00,Wunderground v.1.13,2013-02-07 13:54:00,
2013-02-07 08:59:00,49.3,35.1,30.30,South,173,0.0,0.0,58,0.00,,,0.00,Wunderground v.1.13,2013-02-07 13:59:00,
2013-02-07 09:04:00,49.3,35.1,30.30,South,173,0.0,0.0,58,0.00,,,0.00,Wunderground v.1.13,2013-02-07 14:04:00,
2013-02-07 09:09:00,49.4,35.2,30.30,South,173,0.0,2.0,58,0.00,,,0.00,Wunderground v.1.13,2013-02-07 14:09:00,
2013-02-07 09:14:00,49.4,34.8,30.30,South,173,0.0,2.0,57,0.00,,,0.00,Wunderground v.1.13,2013-02-07 14:14:00,
2013-02-07 09:19:00,49.4,34.8,30.29,ESE,113,0.0,0.0,57,0.00,,,0.00,Wunderground v.1.13,2013-02-07 14:19:00,
2013-02-07 09:24:00,49.5,34.9,30.29,SSE,165,0.0,2.0,57,0.00,,,0.00,Wunderground v.1.13,2013-02-07 14:24:00,
2013-02-07 09:29:00,49.6,35.0,30.28,South,183,0.0,5.0,57,0.00,,,0.00,Wunderground v.1.13,2013-02-07 14:29:00,
2013-02-07 09:34:00,49.7,35.1,30.27,South,183,0.0,1.0,57,0.00,,,0.00,Wunderground v.1.13,2013-02-07 14:34:00,
2013-02-07 09:39:00,49.7,35.5,30.27,South,183,0.0,0.0,58,0.00,,,0.00,Wunderground v.1.13,2013-02-07 14:39:00,
2013-02-07 09:44:00,49.7,35.5,30.27,WSW,251,0.0,2.0,58,0.00,,,0.00,Wunderground v.1.13,2013-02-07 14:44:00,
2013-02-07 09:49:00,49.7,35.9,30.27,WSW,251,0.0,0.0,59,0.00,,,0.00,Wunderground v.1.13,2013-02-07 14:49:00,
2013-02-07 09:54:00,49.7,35.5,30.27,WSW,251,0.0,1.0,58,0.00,,,0.00,Wunderground v.1.13,2013-02-07 14:54:00,
2013-02-07 09:59:00,49.7,36.4,30.27,WSW,251,0.0,1.0,60,0.00,,,0.00,Wunderground v.1.13,2013-02-07 14:59:00,
2013-02-07 10:04:00,49.7,36.4,30.27,WSW,251,0.0,0.0,60,0.00,,,0.00,Wunderground v.1.13,2013-02-07 15:04:00,
2013-02-07 10:10:00,49.7,35.9,30.27,WSW,251,0.0,0.0,59,0.00,,,0.00,Wunderground v.1.13,2013-02-07 15:10:00,
2013-02-07 10:15:00,49.8,36.0,30.27,WSW,250,0.0,0.0,59,0.00,,,0.00,Wunderground v.1.13,2013-02-07 15:15:00,
2013-02-07 10:20:00,49.9,36.1,30.27,WSW,250,0.0,0.0,59,0.00,,,0.00,Wunderground v.1.13,2013-02-07 15:20:00,
2013-02-07 10:25:00,49.9,36.6,30.27,WSW,250,0.0,0.0,60,0.00,,,0.00,Wunderground v.1.13,2013-02-07 15:25:00,
2013-02-07 10:30:00,49.9,37.0,30.27,WSW,250,0.0,0.0,61,0.00,,,0.00,Wunderground v.1.13,2013-02-07 15:30:00,
2013-02-07 10:35:00,49.9,36.1,30.27,WSW,250,0.0,0.0,59,0.00,,,0.00,Wunderground v.1.13,2013-02-07 15:35:00,
2013-02-07 10:40:00,50.1,38.0,30.27,WSW,250,0.0,0.0,63,0.00,,,0.00,Wunderground v.1.13,2013-02-07 15:40:00,
2013-02-07 10:45:00,50.0,37.5,30.26,WSW,250,0.0,0.0,62,0.00,,,0.00,Wunderground v.1.13,2013-02-07 15:45:00,
2013-02-07 10:50:00,49.8,38.9,30.26,WSW,250,0.0,0.0,66,0.00,,,0.00,Wunderground v.1.13,2013-02-07 15:50:00,
2013-02-07 10:55:00,49.6,40.2,30.27,WSW,250,0.0,0.0,70,0.00,,,0.00,Wunderground v.1.13,2013-02-07 15:55:00,
2013-02-07 11:00:00,49.3,39.9,30.27,WSW,250,0.0,1.0,70,0.00,,,0.01,Wunderground v.1.13,2013-02-07 16:00:00,
2013-02-07 11:05:00,49.0,42.1,30.26,WSW,250,0.0,0.0,77,0.00,,,0.01,Wunderground v.1.13,2013-02-07 16:05:00,
2013-02-07 11:10:00,48.6,41.4,30.26,WSW,250,0.0,0.0,76,0.00,,,0.01,Wunderground v.1.13,2013-02-07 16:10:00,
2013-02-07 11:15:00,48.3,41.8,30.26,WSW,246,0.0,0.0,78,0.00,,,0.01,Wunderground v.1.13,2013-02-07 16:15:00,
2013-02-07 11:20:00,48.2,41.3,30.25,WSW,246,0.0,0.0,77,0.00,,,0.01,Wunderground v.1.13,2013-02-07 16:20:00,
2013-02-07 11:25:00,48.2,41.7,30.25,WSW,246,0.0,1.0,78,0.00,,,0.01,Wunderground v.1.13,2013-02-07 16:25:00,
2013-02-07 11:31:00,48.1,41.2,30.25,WSW,245,0.0,0.0,77,0.00,,,0.01,Wunderground v.1.13,2013-02-07 16:31:00,
2013-02-07 11:36:00,48.1,42.2,30.25,WSW,245,0.0,0.0,80,0.00,,,0.01,Wunderground v.1.13,2013-02-07 16:36:00,
2013-02-07 11:41:00,48.2,42.0,30.25,WSW,245,0.0,0.0,79,0.00,,,0.01,Wunderground v.1.13,2013-02-07 16:41:00,
2013-02-07 11:46:00,48.2,42.0,30.25,WSW,245,0.0,0.0,79,0.00,,,0.01,Wunderground v.1.13,2013-02-07 16:46:00,
2013-02-07 11:51:00,48.2,42.0,30.25,WSW,245,0.0,0.0,79,0.00,,,0.01,Wunderground v.1.13,2013-02-07 16:51:00,
2013-02-07 11:56:00,48.2,42.3,30.25,WSW,245,0.0,0.0,80,0.00,,,0.01,Wunderground v.1.13,2013-02-07 16:56:00,
2013-02-07 12:01:00,48.3,42.4,30.25,WSW,245,0.0,0.0,80,0.00,,,0.01,Wunderground v.1.13,2013-02-07 17:01:00,
2013-02-07 12:06:00,48.2,42.3,30.25,WSW,245,0.0,0.0,80,0.00,,,0.01,Wunderground v.1.13,2013-02-07 17:06:00,
2013-02-07 12:11:00,48.1,42.5,30.25,South,181,0.0,0.0,81,0.00,,,0.01,Wunderground v.1.13,2013-02-07 17:11:00,
2013-02-07 12:16:00,48.0,43.4,30.25,South,181,0.0,0.0,84,0.00,,,0.01,Wunderground v.1.13,2013-02-07 17:16:00,
2013-02-07 12:21:00,47.7,42.8,30.24,South,181,0.0,1.0,83,0.00,,,0.01,Wunderground v.1.13,2013-02-07 17:21:00,
2013-02-07 12:26:00,47.6,41.7,30.24,South,181,0.0,1.0,80,0.00,,,0.01,Wunderground v.1.13,2013-02-07 17:26:00,
2013-02-07 12:31:00,47.6,43.3,30.23,South,181,0.0,0.0,85,0.00,,,0.02,Wunderground v.1.13,2013-02-07 17:31:00,
2013-02-07 12:36:00,47.6,43.3,30.23,South,181,0.0,0.0,85,0.00,,,0.02,Wunderground v.1.13,2013-02-07 17:36:00,
2013-02-07 12:41:00,47.4,43.4,30.23,South,181,0.0,0.0,86,0.08,,,0.03,Wunderground v.1.13,2013-02-07 17:41:00,
2013-02-07 12:46:00,47.2,43.8,30.22,South,181,0.0,0.0,88,0.07,,,0.03,Wunderground v.1.13,2013-02-07 17:46:00,
2013-02-07 12:51:00,47.1,43.4,30.21,South,181,0.0,1.0,87,0.04,,,0.03,Wunderground v.1.13,2013-02-07 17:51:00,
2013-02-07 12:56:00,47.1,43.1,30.21,WNW,282,0.0,2.0,86,0.00,,,0.03,Wunderground v.1.13,2013-02-07 17:56:00,
2013-02-07 13:01:00,47.1,43.7,30.21,WNW,282,0.0,1.0,88,0.00,,,0.03,Wunderground v.1.13,2013-02-07 18:01:00,
2013-02-07 13:06:00,47.2,43.8,30.21,WNW,282,0.0,0.0,88,0.00,,,0.03,Wunderground v.1.13,2013-02-07 18:06:00,
2013-02-07 13:11:00,47.2,44.1,30.21,WNW,282,0.0,1.0,89,0.00,,,0.03,Wunderground v.1.13,2013-02-07 18:11:00,
2013-02-07 13:16:00,47.3,44.2,30.21,WSW,250,0.0,0.0,89,0.00,,,0.03,Wunderground v.1.13,2013-02-07 18:16:00,
2013-02-07 13:21:00,47.3,44.2,30.20,WSW,248,0.0,2.0,89,0.00,,,0.03,Wunderground v.1.13,2013-02-07 18:21:00,
2013-02-07 13:26:00,47.3,44.2,30.20,WSW,248,0.0,1.0,89,0.00,,,0.03,Wunderground v.1.13,2013-02-07 18:26:00,
2013-02-07 13:31:00,47.3,44.2,30.20,WSW,248,1.0,2.0,89,0.00,,,0.03,Wunderground v.1.13,2013-02-07 18:31:00,
2013-02-07 13:36:00,47.4,44.6,30.20,WSW,247,0.0,2.0,90,0.00,,,0.03,Wunderground v.1.13,2013-02-07 18:36:00,
2013-02-07 13:41:00,47.4,44.6,30.20,South,180,0.0,0.0,90,0.00,,,0.03,Wunderground v.1.13,2013-02-07 18:41:00,
2013-02-07 13:46:00,47.5,44.7,30.19,SSW,209,0.0,2.0,90,0.00,,,0.03,Wunderground v.1.13,2013-02-07 18:46:00,
2013-02-07 13:51:00,47.5,44.4,30.18,WNW,296,0.0,3.0,89,0.00,,,0.03,Wunderground v.1.13,2013-02-07 18:51:00,
2013-02-07 13:56:00,47.5,44.4,30.18,WNW,296,0.0,2.0,89,0.00,,,0.03,Wunderground v.1.13,2013-02-07 18:56:00,
2013-02-07 14:01:00,47.5,44.7,30.18,WNW,296,0.0,2.0,90,0.00,,,0.04,Wunderground v.1.13,2013-02-07 19:01:00,
2013-02-07 14:06:00,47.4,44.9,30.18,NNE,18,0.0,2.0,91,0.00,,,0.04,Wunderground v.1.13,2013-02-07 19:06:00,
2013-02-07 14:12:00,47.3,44.5,30.17,SSW,200,1.0,4.0,90,0.06,,,0.05,Wunderground v.1.13,2013-02-07 19:12:00,
2013-02-07 14:17:00,47.2,44.4,30.17,NW,325,0.0,3.0,90,0.06,,,0.05,Wunderground v.1.13,2013-02-07 19:17:00,
2013-02-07 14:21:00,47.0,44.2,30.16,NNW,327,0.0,2.0,90,0.05,,,0.05,Wunderground v.1.13,2013-02-07 19:21:00,
2013-02-07 14:26:00,46.9,44.1,30.17,WNW,294,0.0,4.0,90,0.00,,,0.05,Wunderground v.1.13,2013-02-07 19:26:00,
2013-02-07 14:31:00,46.8,44.0,30.17,NW,322,0.0,2.0,90,0.00,,,0.05,Wunderground v.1.13,2013-02-07 19:31:00,
2013-02-07 14:37:00,46.5,43.7,30.16,WSW,244,0.0,2.0,90,0.00,,,0.05,Wunderground v.1.13,2013-02-07 19:37:00,
2013-02-07 14:42:00,46.2,43.1,30.16,WSW,255,1.0,4.0,89,0.00,,,0.05,Wunderground v.1.13,2013-02-07 19:42:00,
2013-02-07 14:47:00,46.0,42.6,30.16,South,190,0.0,4.0,88,0.00,,,0.05,Wunderground v.1.13,2013-02-07 19:47:00,
2013-02-07 14:52:00,46.0,43.2,30.16,WNW,283,0.0,1.0,90,0.00,,,0.05,Wunderground v.1.13,2013-02-07 19:52:00,
2013-02-07 14:57:00,46.0,42.9,30.16,NNW,348,0.0,2.0,89,0.00,,,0.05,Wunderground v.1.13,2013-02-07 19:57:00,
2013-02-07 15:02:00,46.0,42.6,30.16,NE,34,3.0,10.0,88,0.00,,,0.05,Wunderground v.1.13,2013-02-07 20:02:00,
2013-02-07 15:07:00,46.0,42.9,30.16,NNE,23,0.0,3.0,89,0.00,,,0.05,Wunderground v.1.13,2013-02-07 20:07:00,
2013-02-07 15:12:00,46.0,43.2,30.16,NNE,23,0.0,2.0,90,0.00,,,0.06,Wunderground v.1.13,2013-02-07 20:12:00,
2013-02-07 15:17:00,46.0,42.9,30.16,SSW,211,0.0,1.0,89,0.00,,,0.06,Wunderground v.1.13,2013-02-07 20:17:00,
2013-02-07 15:22:00,46.1,43.3,30.15,SSW,212,0.0,0.0,90,0.00,,,0.06,Wunderground v.1.13,2013-02-07 20:22:00,
2013-02-07 15:27:00,46.1,43.6,30.15,SW,214,0.0,2.0,91,0.00,,,0.06,Wunderground v.1.13,2013-02-07 20:27:00,
2013-02-07 15:32:00,46.0,43.5,30.15,SW,214,0.0,1.0,91,0.00,,,0.07,Wunderground v.1.13,2013-02-07 20:32:00,
2013-02-07 15:37:00,45.9,43.4,30.15,SW,214,0.0,0.0,91,0.00,,,0.07,Wunderground v.1.13,2013-02-07 20:37:00,
2013-02-07 15:42:00,45.9,43.4,30.14,West,279,0.0,1.0,91,0.00,,,0.07,Wunderground v.1.13,2013-02-07 20:42:00,
2013-02-07 15:47:00,45.8,43.6,30.14,West,279,0.0,1.0,92,0.00,,,0.07,Wunderground v.1.13,2013-02-07 20:47:00,
2013-02-07 15:52:00,45.9,43.7,30.14,West,279,0.0,1.0,92,0.00,,,0.07,Wunderground v.1.13,2013-02-07 20:52:00,
2013-02-07 15:57:00,45.9,43.7,30.14,WNW,291,0.0,3.0,92,0.00,,,0.08,Wunderground v.1.13,2013-02-07 20:57:00,
2013-02-07 16:02:00,46.0,43.8,30.13,WNW,286,1.0,1.0,92,0.00,,,0.08,Wunderground v.1.13,2013-02-07 21:02:00,
2013-02-07 16:07:00,46.0,44.1,30.13,WNW,287,0.0,2.0,93,0.00,,,0.08,Wunderground v.1.13,2013-02-07 21:07:00,
2013-02-07 16:12:00,46.1,44.2,30.13,WNW,295,9.0,9.0,93,0.00,,,0.08,Wunderground v.1.13,2013-02-07 21:12:00,
2013-02-07 16:17:00,46.2,44.0,30.13,WNW,302,0.0,4.0,92,0.00,,,0.09,Wunderground v.1.13,2013-02-07 21:17:00,
2013-02-07 16:22:00,46.3,44.4,30.12,NNE,26,0.0,5.0,93,0.00,,,0.09,Wunderground v.1.13,2013-02-07 21:22:00,
2013-02-07 16:27:00,46.3,44.1,30.12,WSW,242,2.0,4.0,92,0.00,,,0.09,Wunderground v.1.13,2013-02-07 21:27:00,
2013-02-07 16:32:00,46.4,44.2,30.12,WNW,293,0.0,4.0,92,0.00,,,0.09,Wunderground v.1.13,2013-02-07 21:32:00,
2013-02-07 16:37:00,46.4,44.2,30.13,WNW,292,0.0,4.0,92,0.00,,,0.10,Wunderground v.1.13,2013-02-07 21:37:00,
2013-02-07 16:42:00,46.4,44.2,30.13,SE,138,0.0,4.0,92,0.00,,,0.10,Wunderground v.1.13,2013-02-07 21:42:00,
2013-02-07 16:47:00,46.3,44.1,30.12,South,172,1.0,2.0,92,0.00,,,0.10,Wunderground v.1.13,2013-02-07 21:47:00,
2013-02-07 16:52:00,46.3,44.4,30.12,SSW,205,0.0,2.0,93,0.00,,,0.10,Wunderground v.1.13,2013-02-07 21:52:00,
2013-02-07 16:57:00,46.2,44.3,30.11,WSW,242,0.0,2.0,93,0.00,,,0.10,Wunderground v.1.13,2013-02-07 21:57:00,
2013-02-07 17:02:00,46.1,44.2,30.11,NW,323,0.0,2.0,93,0.00,,,0.10,Wunderground v.1.13,2013-02-07 22:02:00,
2013-02-07 17:07:00,46.1,44.2,30.12,NW,322,0.0,1.0,93,0.00,,,0.11,Wunderground v.1.13,2013-02-07 22:07:00,
2013-02-07 17:12:00,46.2,44.3,30.12,West,275,0.0,1.0,93,0.00,,,0.11,Wunderground v.1.13,2013-02-07 22:12:00,
2013-02-07 17:17:00,46.2,44.3,30.12,SSW,205,1.0,2.0,93,0.00,,,0.11,Wunderground v.1.13,2013-02-07 22:17:00,
2013-02-07 17:22:00,46.3,44.4,30.11,WSW,248,0.0,2.0,93,0.00,,,0.11,Wunderground v.1.13,2013-02-07 22:22:00,
2013-02-07 17:27:00,46.3,44.4,30.12,WSW,255,0.0,1.0,93,0.00,,,0.11,Wunderground v.1.13,2013-02-07 22:27:00,
2013-02-07 17:32:00,46.3,44.4,30.12,WSW,255,2.0,2.0,93,0.00,,,0.11,Wunderground v.1.13,2013-02-07 22:32:00,
2013-02-07 17:37:00,46.3,44.4,30.12,West,265,0.0,3.0,93,0.00,,,0.12,Wunderground v.1.13,2013-02-07 22:37:00,
2013-02-07 17:43:00,46.3,44.4,30.12,West,265,0.0,0.0,93,0.00,,,0.12,Wunderground v.1.13,2013-02-07 22:43:00,
2013-02-07 17:48:00,46.3,44.4,30.12,West,265,0.0,0.0,93,0.00,,,0.12,Wunderground v.1.13,2013-02-07 22:48:00,
2013-02-07 17:53:00,46.2,44.6,30.12,West,265,0.0,0.0,94,0.00,,,0.12,Wunderground v.1.13,2013-02-07 22:53:00,
2013-02-07 17:57:00,46.2,44.3,30.12,West,265,0.0,1.0,93,0.00,,,0.12,Wunderground v.1.13,2013-02-07 22:57:00,
2013-02-07 18:02:00,46.2,44.6,30.13,West,265,0.0,0.0,94,0.00,,,0.12,Wunderground v.1.13,2013-02-07 23:02:00,
2013-02-07 18:08:00,46.2,44.3,30.13,West,265,0.0,1.0,93,0.00,,,0.12,Wunderground v.1.13,2013-02-07 23:08:00,
2013-02-07 18:13:00,46.3,44.7,30.12,West,265,0.0,0.0,94,0.00,,,0.12,Wunderground v.1.13,2013-02-07 23:13:00,
2013-02-07 18:18:00,46.2,44.6,30.13,West,265,0.0,0.0,94,0.00,,,0.12,Wunderground v.1.13,2013-02-07 23:18:00,
2013-02-07 18:23:00,46.2,44.6,30.13,West,265,0.0,0.0,94,0.00,,,0.12,Wunderground v.1.13,2013-02-07 23:23:00,
2013-02-07 18:28:00,46.1,44.2,30.13,West,265,0.0,0.0,93,0.00,,,0.12,Wunderground v.1.13,2013-02-07 23:28:00,
2013-02-07 18:33:00,46.2,44.3,30.13,West,265,0.0,1.0,93,0.00,,,0.12,Wunderground v.1.13,2013-02-07 23:33:00,
2013-02-07 18:38:00,46.3,44.4,30.13,West,265,0.0,0.0,93,0.00,,,0.12,Wunderground v.1.13,2013-02-07 23:38:00,
2013-02-07 18:43:00,46.2,44.3,30.13,West,265,0.0,0.0,93,0.00,,,0.12,Wunderground v.1.13,2013-02-07 23:43:00,
2013-02-07 18:48:00,46.1,44.5,30.13,West,265,0.0,0.0,94,0.00,,,0.12,Wunderground v.1.13,2013-02-07 23:48:00,
2013-02-07 18:53:00,46.0,44.4,30.13,West,265,0.0,0.0,94,0.00,,,0.13,Wunderground v.1.13,2013-02-07 23:53:00,
2013-02-07 18:58:00,46.0,44.4,30.13,West,265,0.0,0.0,94,0.00,,,0.13,Wunderground v.1.13,2013-02-07 23:58:00,
2013-02-07 19:03:00,45.9,44.5,30.13,West,265,0.0,0.0,95,0.00,,,0.13,Wunderground v.1.13,2013-02-08 00:03:00,
2013-02-07 19:08:00,45.9,44.5,30.13,West,265,0.0,0.0,95,0.00,,,0.13,Wunderground v.1.13,2013-02-08 00:08:00,
2013-02-07 19:13:00,45.8,44.4,30.13,West,265,0.0,0.0,95,0.00,,,0.13,Wunderground v.1.13,2013-02-08 00:13:00,
2013-02-07 19:18:00,45.8,44.4,30.13,West,265,0.0,0.0,95,0.00,,,0.13,Wunderground v.1.13,2013-02-08 00:18:00,
2013-02-07 19:23:00,45.8,44.4,30.13,West,265,0.0,0.0,95,0.00,,,0.13,Wunderground v.1.13,2013-02-08 00:23:00,
2013-02-07 19:28:00,45.8,44.4,30.13,West,265,0.0,0.0,95,0.00,,,0.13,Wunderground v.1.13,2013-02-08 00:28:00,
2013-02-07 19:33:00,45.7,44.6,30.13,West,265,0.0,0.0,96,0.00,,,0.14,Wunderground v.1.13,2013-02-08 00:33:00,
2013-02-07 19:38:00,45.7,44.6,30.13,West,265,0.0,0.0,96,0.00,,,0.14,Wunderground v.1.13,2013-02-08 00:38:00,
2013-02-07 19:43:00,45.7,44.6,30.13,West,265,0.0,0.0,96,0.00,,,0.14,Wunderground v.1.13,2013-02-08 00:43:00,
2013-02-07 19:48:00,45.8,44.7,30.13,West,265,0.0,0.0,96,0.00,,,0.14,Wunderground v.1.13,2013-02-08 00:48:00,
2013-02-07 19:53:00,45.8,44.4,30.12,West,265,0.0,0.0,95,0.00,,,0.14,Wunderground v.1.13,2013-02-08 00:53:00,
2013-02-07 19:58:00,46.0,44.6,30.12,West,265,0.0,1.0,95,0.00,,,0.14,Wunderground v.1.13,2013-02-08 00:58:00,
2013-02-07 20:03:00,46.1,44.5,30.12,West,261,0.0,2.0,94,0.00,,,0.14,Wunderground v.1.13,2013-02-08 01:03:00,
2013-02-07 20:08:00,46.4,44.8,30.12,West,261,0.0,0.0,94,0.00,,,0.14,Wunderground v.1.13,2013-02-08 01:08:00,
2013-02-07 20:13:00,46.4,44.8,30.12,West,261,0.0,0.0,94,0.00,,,0.14,Wunderground v.1.13,2013-02-08 01:13:00,
2013-02-07 20:18:00,46.4,44.8,30.12,West,261,0.0,0.0,94,0.00,,,0.14,Wunderground v.1.13,2013-02-08 01:18:00,
2013-02-07 20:23:00,46.3,44.7,30.12,West,261,0.0,0.0,94,0.00,,,0.14,Wunderground v.1.13,2013-02-08 01:23:00,
2013-02-07 20:29:00,46.4,44.8,30.12,West,261,0.0,0.0,94,0.00,,,0.14,Wunderground v.1.13,2013-02-08 01:29:00,
2013-02-07 20:34:00,46.3,44.7,30.12,West,261,0.0,0.0,94,0.00,,,0.14,Wunderground v.1.13,2013-02-08 01:34:00,
2013-02-07 20:39:00,46.3,44.7,30.12,West,261,0.0,0.0,94,0.00,,,0.14,Wunderground v.1.13,2013-02-08 01:39:00,
2013-02-07 20:44:00,46.3,44.7,30.12,West,261,0.0,0.0,94,0.00,,,0.14,Wunderground v.1.13,2013-02-08 01:44:00,
2013-02-07 20:49:00,46.3,44.7,30.12,West,261,0.0,0.0,94,0.00,,,0.14,Wunderground v.1.13,2013-02-08 01:49:00,
2013-02-07 20:54:00,46.3,44.4,30.12,West,261,0.0,0.0,93,0.00,,,0.14,Wunderground v.1.13,2013-02-08 01:54:00,
2013-02-07 20:59:00,46.3,44.4,30.12,West,261,0.0,0.0,93,0.00,,,0.14,Wunderground v.1.13,2013-02-08 01:59:00,
2013-02-07 21:04:00,46.3,44.4,30.12,West,261,0.0,0.0,93,0.00,,,0.14,Wunderground v.1.13,2013-02-08 02:04:00,
2013-02-07 21:09:00,46.3,44.7,30.12,West,261,0.0,0.0,94,0.00,,,0.14,Wunderground v.1.13,2013-02-08 02:09:00,
2013-02-07 21:14:00,46.2,44.6,30.12,West,261,0.0,0.0,94,0.00,,,0.14,Wunderground v.1.13,2013-02-08 02:14:00,
2013-02-07 21:19:00,46.1,44.5,30.12,West,261,0.0,0.0,94,0.00,,,0.15,Wunderground v.1.13,2013-02-08 02:19:00,
2013-02-07 21:24:00,46.0,44.4,30.12,West,261,0.0,0.0,94,0.00,,,0.15,Wunderground v.1.13,2013-02-08 02:24:00,
2013-02-07 21:29:00,45.9,44.3,30.12,West,261,0.0,0.0,94,0.00,,,0.15,Wunderground v.1.13,2013-02-08 02:29:00,
2013-02-07 21:34:00,46.0,44.4,30.12,West,261,0.0,0.0,94,0.00,,,0.15,Wunderground v.1.13,2013-02-08 02:34:00,
2013-02-07 21:39:00,46.0,44.6,30.12,West,261,0.0,0.0,95,0.00,,,0.16,Wunderground v.1.13,2013-02-08 02:39:00,
2013-02-07 21:44:00,45.9,44.5,30.12,West,261,0.0,0.0,95,0.13,,,0.17,Wunderground v.1.13,2013-02-08 02:44:00,
2013-02-07 21:49:00,45.9,44.5,30.12,West,261,0.0,0.0,95,0.11,,,0.18,Wunderground v.1.13,2013-02-08 02:49:00,
2013-02-07 21:54:00,45.8,44.4,30.12,West,261,0.0,0.0,95,0.09,,,0.19,Wunderground v.1.13,2013-02-08 02:54:00,
2013-02-07 21:59:00,45.7,44.4,30.12,West,261,0.0,0.0,95,0.08,,,0.19,Wunderground v.1.13,2013-02-08 02:59:00,
2013-02-07 22:04:00,45.6,44.5,30.11,West,261,0.0,0.0,96,0.05,,,0.19,Wunderground v.1.13,2013-02-08 03:04:00,
2013-02-07 22:09:00,45.6,44.5,30.11,West,261,0.0,0.0,96,0.00,,,0.19,Wunderground v.1.13,2013-02-08 03:09:00,
2013-02-07 22:15:00,45.6,44.5,30.11,West,261,0.0,0.0,96,0.00,,,0.20,Wunderground v.1.13,2013-02-08 03:15:00,
2013-02-07 22:19:00,45.6,44.5,30.12,West,261,0.0,0.0,96,0.00,,,0.20,Wunderground v.1.13,2013-02-08 03:19:00,
2013-02-07 22:25:00,45.5,44.4,30.12,West,261,0.0,0.0,96,0.00,,,0.20,Wunderground v.1.13,2013-02-08 03:25:00,
2013-02-07 22:30:00,45.5,44.4,30.11,West,261,0.0,0.0,96,0.00,,,0.20,Wunderground v.1.13,2013-02-08 03:30:00,
2013-02-07 22:35:00,45.5,44.4,30.11,West,261,0.0,0.0,96,0.00,,,0.20,Wunderground v.1.13,2013-02-08 03:35:00,
2013-02-07 22:40:00,45.4,44.3,30.11,West,261,0.0,0.0,96,0.00,,,0.20,Wunderground v.1.13,2013-02-08 03:40:00,
2013-02-07 22:45:00,45.4,44.6,30.11,West,261,0.0,0.0,97,0.00,,,0.20,Wunderground v.1.13,2013-02-08 03:45:00,
2013-02-07 22:50:00,45.3,44.5,30.11,West,261,0.0,0.0,97,0.00,,,0.20,Wunderground v.1.13,2013-02-08 03:50:00,
2013-02-07 22:55:00,45.3,44.5,30.10,West,261,0.0,0.0,97,0.00,,,0.20,Wunderground v.1.13,2013-02-08 03:55:00,
2013-02-07 23:00:00,45.2,44.4,30.10,West,261,0.0,0.0,97,0.00,,,0.20,Wunderground v.1.13,2013-02-08 04:00:00,
2013-02-07 23:05:00,45.2,44.4,30.10,West,261,1.0,1.0,97,0.00,,,0.20,Wunderground v.1.13,2013-02-08 04:05:00,
2013-02-07 23:10:00,45.3,44.2,30.10,West,261,0.0,0.0,96,0.00,,,0.20,Wunderground v.1.13,2013-02-08 04:10:00,
2013-02-07 23:15:00,45.3,44.2,30.10,West,261,0.0,0.0,96,0.00,,,0.20,Wunderground v.1.13,2013-02-08 04:15:00,
2013-02-07 23:20:00,45.3,44.2,30.10,West,261,0.0,0.0,96,0.00,,,0.20,Wunderground v.1.13,2013-02-08 04:20:00,
2013-02-07 23:25:00,45.3,44.2,30.11,West,261,0.0,0.0,96,0.00,,,0.20,Wunderground v.1.13,2013-02-08 04:25:00,
2013-02-07 23:30:00,45.3,44.2,30.10,West,261,1.0,1.0,96,0.00,,,0.20,Wunderground v.1.13,2013-02-08 04:30:00,
2013-02-07 23:35:00,45.2,44.1,30.10,West,261,0.0,0.0,96,0.00,,,0.20,Wunderground v.1.13,2013-02-08 04:35:00,
2013-02-07 23:40:00,45.3,44.2,30.11,West,261,0.0,0.0,96,0.00,,,0.20,Wunderground v.1.13,2013-02-08 04:40:00,
2013-02-07 23:45:00,45.3,44.2,30.11,West,261,0.0,0.0,96,0.00,,,0.20,Wunderground v.1.13,2013-02-08 04:45:00,
2013-02-07 23:50:00,45.3,44.2,30.10,West,261,0.0,0.0,96,0.00,,,0.20,Wunderground v.1.13,2013-02-08 04:50:00,
2013-02-07 23:55:00,45.3,44.2,30.10,West,261,0.0,0.0,96,0.00,,,0.20,Wunderground v.1.13,2013-02-08 04:55:00,